Dewpoint
32 33 31 32 37 39 42 40 40 39 39 39 39 40 40 41 41 41 37 40 35 31 28 25 25 23 27 27 26 31 32 33 34 29 25 27 24 21 17 20 19 18 17 14 16 19 17 22 20 18 28 30 29 29
33 32 32 36 38 40 40 39 39 39 40 40 41 41 41 41 42 41 36 40 39 33 33 38 33 36 35 28 28 35 31 33 34 31 29 24 22 20 18 15 19 14 18 16 19 21 27 27 28 31 31 30 31 29
32 31 35 38 41 40 38 38 39 39 40 41 41 40 42 41 42 41 37 39 38 35 35 35 34 39 39 39 34 33 33 32 32 33 31 30 26 27 18 21 17 18 18 22 24 26 28 25 26 30 29 30 30 28
31 33 38 40 40 38 39 37 38 40 40 40 41 41 45 40 43 42 37 39 37 36 30 32 39 37 39 40 37 35 32 33 35 34 32 31 29 32 30 26 19 22 20 26 26 29 25 25 28 29 28 27 26 27
32 37 38 40 39 38 37 38 39 42 42 44 43 45 44 41 40 41 40 38 38 34 30 32 37 39 38 38 38 38 36 36 35 32 32 30 31 30 32 31 24 28 25 29 28 26 26 26 28 29 28 27 27 26
35 37 40 38 38 37 37 38 40 41 42 43 42 43 43 41 41 39 35 41 41 37 34 29 36 39 39 39 39 38 38 37 35 33 29 27 27 27 28 27 32 32 31 29 30 31 30 30 30 29 28 27 25 25
36 40 38 38 38 37 36 38 38 40 41 41 40 41 42 41 39 37 34 39 41 39 32 29 30 36 40 38 38 38 38 34 29 27 24 24 21 24 22 24 31 31 32 32 31 30 29 30 28 29 28 27 25 22
38 41 38 37 35 36 38 36 38 40 38 40 37 40 41 40 39 36 37 40 41 35 33 28 27 31 37 33 32 36 32 27 24 23 23 20 20 20 21 28 28 30 30 31 31 31 30 29 28 27 26 24 21 20
40 39 38 36 36 39 36 35 36 38 37 37 37 35 34 34 34 34 36 38 37 33 29 27 25 24 32 29 28 26 28 21 25 20 18 19 20 18 22 25 28 27 28 30 29 29 28 27 26 24 22 22 20 19
41 37 37 36 37 38 37 35 36 38 37 33 34 31 30 29 31 36 34 28 31 32 29 25 28 27 28 27 27 25 24 23 24 18 24 25 21 22 23 25 26 27 28 28 28 27 26 25 23 20 19 19 19 18
41 39 37 38 37 37 36 37 37 38 38 34 30 28 30 32 33 32 23 25 28 29 31 26 25 23 27 24 26 27 23 22 18 17 21 22 23 25 27 26 26 26 26 26 25 25 24 21 19 19 19 18 18 18
40 39 38 38 38 36 36 35 35 35 34 33 30 32 33 31 28 22 22 22 24 26 30 25 27 30 29 29 26 26 23 25 17 21 21 22 26 26 26 26 26 25 24 24 23 22 22 20 19 19 18 18 18 18
40 40 39 38 38 36 35 34 37 38 37 34 31 28 26 24 21 17 16 19 24 30 30 26 25 28 29 28 26 26 21 21 24 21 23 24 26 26 26 25 23 22 20 20 20 20 19 19 18 17 17 18 17 15
41 40 40 39 37 36 34 34 38 36 34 29 24 19 22 22 26 25 23 25 28 28 28 28 27 27 28 26 24 20 23 25 21 20 21 26 25 25 25 23 21 20 19 19 19 19 18 17 17 18 18 17 16 15
41 40 39 38 37 36 36 38 37 35 30 25 24 20 23 28 30 30 29 28 29 29 27 26 26 26 25 23 22 21 21 19 19 23 25 26 25 25 23 21 19 18 17 17 16 16 16 16 16 16 16 14 13 11
39 39 38 36 36 35 34 37 34 32 28 27 27 26 30 28 28 29 29 27 29 28 28 26 23 21 21 22 20 18 18 19 25 28 27 25 25 23 21 19 18 18 17 16 16 16 16 15 15 14 14 13 11 11
37 36 39 38 37 36 35 34 28 26 27 26 26 30 30 30 30 32 33 32 35 29 22 23 19 18 21 16 20 26 24 27 28 27 26 25 25 22 20 20 19 18 16 16 16 15 15 15 14 13 12 13 13 12
36 38 37 36 37 37 30 29 25 24 23 26 24 28 29 31 30 31 31 32 32 28 26 20 21 19 17 18 22 26 28 29 29 27 27 27 25 23 22 20 19 18 17 16 15 16 14 13 13 13 14 14 12 12
36 36 35 35 34 31 27 27 25 22 24 27 27 27 28 29 30 32 31 31 30 29 27 23 24 24 25 28 26 26 28 27 26 26 26 25 24 23 22 20 19 18 17 17 17 15 14 16 18 16 17 15 14 14
34 35 36 33 33 26 25 25 27 24 23 25 26 25 27 27 28 29 29 29 27 24 26 26 26 27 26 28 30 27 29 27 25 23 23 24 24 22 20 20 19 18 17 18 17 16 16 18 19 17 17 15 17 16
34 35 35 31 27 28 27 25 24 25 24 24 26 25 25 26 25 25 26 28 24 27 28 27 26 27 28 29 31 30 28 27 25 23 22 21 23 21 20 20 19 19 18 18 18 17 17 18 18 18 16 18 18 17
33 34 32 29 26 26 27 27 25 25 25 23 23 24 22 22 23 24 25 25 27 27 31 30 27 26 26 27 29 29 28 26 26 24 23 23 22 20 21 21 19 19 19 19 18 17 17 18 18 17 18 19 19 14
34 32 29 27 23 23 24 28 24 24 20 23 23 19 20 21 23 24 21 26 26 29 29 27 27 27 26 26 27 28 28 29 26 24 24 23 23 21 23 21 20 21 19 20 19 17 19 18 16 19 18 17 18 14
31 29 26 23 21 21 25 22 21 22 22 24 19 18 19 20 23 21 21 25 26 27 25 25 25 24 24 24 24 26 27 29 27 26 24 26 23 24 23 21 22 22 21 20 20 19 19 17 18 19 15 14 17 14
24 23 25 21 23 20 20 20 19 19 19 21 18 18 19 21 18 19 21 24 25 25 25 24 23 23 26 25 26 25 28 27 26 25 26 26 25 25 24 23 23 22 22 20 19 19 18 17 17 19 15 14 15 16
19 23 24 20 21 20 19 19 19 18 19 18 20 21 21 19 17 19 22 24 23 23 23 24 24 23 23 28 27 25 26 29 26 26 27 26 25 23 22 22 22 22 23 22 21 19 18 17 16 17 15 14 15 14
21 21 22 24 24 22 21 22 23 19 17 17 18 19 19 16 18 19 21 22 22 23 23 26 26 26 27 27 29 27 27 29 30 26 26 27 26 25 23 22 21 21 23 22 22 19 18 17 15 15 16 14 13 12
22 23 22 22 23 25 20 19 18 19 21 20 20 18 19 17 14 18 19 22 23 25 22 23 25 25 26 27 27 26 27 28 27 27 26 27 26 26 25 24 23 23 22 22 21 19 18 17 15 15 15 14 13 12
24 24 25 23 24 23 20 20 21 21 22 24 23 19 14 15 16 17 19 21 24 24 23 23 23 25 24 26 25 25 27 26 23 21 20 20 21 23 25 24 23 23 23 22 22 21 20 17 16 15 14 15 16 13
22 25 23 22 20 18 18 20 20 22 23 24 21 18 15 14 14 16 16 18 18 17 22 22 23 24 22 22 21 22 24 26 26 24 21 20 20 24 25 25 24 24 23 20 20 21 21 18 18 17 17 15 13 11
21 23 22 21 17 18 19 22 23 24 24 23 20 16 12 12 13 14 13 16 16 15 15 15 16 16 16 17 20 20 21 23 22 25 27 28 25 24 25 24 24 23 21 18 17 16 15 15 15 14 12 12 11 9
21 21 21 18 17 19 21 22 22 21 21 21 19 18 16 16 9 10 12 13 12 10 11 11 12 12 16 18 21 23 23 23 22 25 25 25 24 24 24 23 22 21 19 17 15 15 14 13 13 12 10 10 9 8
19 19 20 18 17 18 18 21 18 18 19 16 15 17 13 11 7 10 10 11 12 9 9 10 11 13 14 18 20 22 22 22 23 24 25 24 24 23 23 22 22 20 18 16 16 13 12 12 11 10 10 10 8 8
Wind_Speed
22 20 23 27 33 38 13 7 11 14 17 21 26 27 30 33 38 35 24 32 35 21 8 35 24 31 20 25 23 9 8 1 8 10 14 7 7 10 6 10 19 20 19 14 9 11 14 11 8 5 15 14 16 16
18 20 23 31 34 24 5 6 11 16 20 26 30 28 30 36 45 48 20 28 27 13 5 3 20 11 11 24 23 14 8 11 10 6 6 7 7 7 12 12 12 11 10 11 13 8 3 8 17 19 21 18 16 18
16 21 27 31 17 3 4 9 16 19 19 13 15 20 23 40 52 63 38 33 27 18 4 7 9 5 2 16 21 16 9 9 8 6 4 2 6 3 10 4 11 6 10 5 6 12 21 16 18 23 22 21 20 19
18 23 28 21 7 4 9 13 16 13 4 2 6 12 10 12 20 42 36 35 31 9 4 9 4 4 9 14 13 10 18 13 9 8 6 4 6 3 3 4 6 7 17 13 7 19 21 18 22 24 23 20 21 21
17 25 26 6 6 4 10 16 15 17 8 14 8 9 17 36 35 29 29 34 27 8 9 3 13 5 16 21 23 16 18 22 10 5 5 4 5 4 7 5 2 1 11 11 8 18 16 20 19 23 21 20 17 22
21 26 6 9 6 3 11 10 11 15 16 20 25 19 26 32 35 31 14 11 18 9 8 6 1 13 16 24 22 21 16 11 6 5 5 5 5 7 5 2 2 8 15 17 12 25 27 26 23 23 23 20 19 20
22 8 11 11 2 6 9 14 16 9 10 15 14 14 12 14 17 9 6 12 12 11 5 6 6 4 15 17 8 16 10 6 7 8 3 4 3 6 6 4 12 17 22 25 27 29 20 12 16 19 20 16 18 17
20 4 12 11 4 4 8 15 19 16 11 16 9 13 12 18 18 22 15 12 7 8 6 6 5 5 3 4 7 6 8 4 4 4 4 5 3 5 6 22 20 20 22 20 18 20 23 21 19 16 14 12 18 17
8 17 15 12 10 6 7 14 19 13 6 7 7 7 13 10 7 6 11 12 10 5 6 4 8 8 2 14 11 5 4 7 6 5 4 5 3 2 22 23 22 20 13 21 22 24 20 19 16 14 13 15 19 18
2 15 13 10 10 9 9 15 20 16 11 3 2 6 7 4 4 7 9 8 13 10 8 5 6 12 10 6 5 6 5 5 4 2 5 6 9 15 19 19 17 25 25 24 24 19 18 17 16 20 19 18 20 19
13 18 9 9 10 11 15 19 19 10 5 2 6 6 2 6 6 6 5 5 3 5 5 7 15 21 6 14 6 4 5 5 4 4 4 4 3 10 22 24 21 20 18 16 17 17 17 22 22 21 20 19 18 17
15 17 14 8 11 9 10 20 22 6 3 4 2 2 2 3 4 7 3 3 6 4 4 12 13 8 6 6 6 4 3 2 4 8 4 5 8 13 20 21 21 23 25 24 22 23 22 21 23 22 18 17 16 16
16 15 13 9 9 9 12 14 16 6 6 4 5 6 6 6 9 4 5 4 5 6 7 11 11 5 5 5 5 3 4 3 4 3 3 5 19 19 20 21 23 23 25 25 24 23 24 23 20 22 20 17 17 17
15 16 17 12 9 7 9 15 19 9 5 4 4 7 6 5 5 6 15 13 8 14 18 13 8 5 4 5 4 5 2 3 2 6 4 15 21 21 20 20 24 21 22 21 20 20 21 22 20 17 17 18 17 17
22 20 15 11 8 8 10 15 15 5 5 5 6 5 5 2 4 13 17 22 16 14 15 12 8 6 4 5 4 5 3 4 5 4 9 19 21 19 20 23 23 22 20 19 18 19 20 20 19 19 17 17 16 15
19 16 7 8 9 9 11 8 5 4 4 5 9 5 5 20 18 17 14 15 7 7 5 7 5 5 4 6 3 3 6 3 3 6 17 22 20 20 21 20 19 19 19 19 17 18 20 20 19 20 18 16 15 14
14 4 7 11 12 11 14 4 5 7 6 5 5 8 9 10 13 10 9 9 10 3 4 5 4 3 2 3 3 5 3 4 13 15 17 18 20 21 21 20 20 20 20 18 19 18 18 19 19 19 19 14 13 12
7 7 10 14 12 5 5 6 6 8 8 8 7 12 9 11 7 8 10 13 10 4 3 4 4 3 4 3 3 5 8 12 12 14 14 20 21 20 19 20 18 18 18 18 18 17 18 19 18 16 17 16 14 13
8 7 10 12 7 3 5 7 7 7 7 4 7 10 8 4 7 7 12 15 9 6 4 4 7 5 5 5 11 11 11 11 15 14 13 17 19 19 18 17 18 17 19 19 18 16 17 16 14 16 15 15 14 14
9 15 21 13 6 4 5 6 5 7 5 3 5 7 4 3 6 7 12 13 10 5 8 6 5 5 5 4 6 12 12 16 18 18 14 13 15 17 17 18 16 17 17 16 15 15 14 12 15 15 16 16 12 15
11 10 13 8 5 10 5 4 6 4 5 4 1 2 5 3 4 6 9 11 8 6 6 6 7 6 5 4 8 13 14 13 12 10 17 17 15 14 16 15 17 15 15 15 16 16 15 13 15 17 15 13 13 14
6 10 6 9 5 5 6 9 5 4 4 4 2 3 4 4 3 5 7 8 5 5 5 6 7 6 7 7 7 10 13 14 14 16 16 18 16 17 15 17 17 16 15 15 16 18 16 14 17 15 14 16 15 15
7 7 5 5 6 6 2 5 3 4 3 5 5 4 3 2 3 5 4 5 4 6 7 7 7 11 8 4 4 8 7 15 15 15 16 15 13 15 14 16 15 15 16 16 16 17 13 18 18 17 16 15 16 14
6 5 5 4 6 3 2 3 3 3 4 2 3 4 3 2 2 2 3 4 4 7 9 5 6 7 6 4 4 7 6 12 14 14 15 14 15 14 15 15 13 14 15 16 16 15 16 18 18 17 17 15 15 15
4 5 3 4 3 3 3 3 2 2 3 2 3 3 3 4 2 2 3 4 8 10 9 6 1 1 4 5 9 9 1 10 14 13 11 13 12 13 13 13 12 14 15 17 18 17 18 18 17 17 18 15 15 15
5 5 4 2 0 2 4 4 4 4 4 3 3 4 4 4 3 4 4 5 6 7 9 7 6 4 3 3 9 10 10 2 10 13 12 13 14 16 15 15 14 14 14 17 18 19 20 19 18 17 16 14 12 12
4 4 4 4 3 3 3 4 6 5 3 4 5 5 4 5 3 4 4 9 5 7 6 6 7 6 4 4 5 4 8 6 6 10 11 14 14 14 17 18 16 13 15 18 18 20 21 19 18 16 15 12 13 12
3 3 2 2 2 3 3 4 3 2 3 4 9 4 3 3 4 3 6 7 9 7 5 7 8 10 10 10 9 9 9 11 13 15 15 12 9 7 9 10 13 19 16 17 18 19 19 20 18 15 15 14 15 12
3 2 2 3 3 5 4 4 3 3 5 4 1 4 4 5 6 6 7 11 10 10 5 6 7 6 7 8 9 7 6 6 11 13 14 11 8 4 7 11 13 13 14 14 15 16 18 19 17 16 15 12 13 11
3 4 2 3 3 3 3 5 3 2 3 4 7 6 5 4 8 11 13 13 13 12 9 6 7 6 4 2 4 3 2 5 6 3 8 10 10 11 11 12 12 12 13 14 15 14 14 13 14 12 15 15 15 13
4 3 1 5 4 3 3 2 1 2 4 6 10 7 8 7 4 12 15 14 11 13 15 15 13 14 15 15 9 2 2 3 4 7 3 6 14 15 12 11 11 12 14 15 15 15 16 16 16 17 17 16 15 13
3 4 4 3 3 1 3 1 1 3 2 3 3 4 7 5 4 4 10 12 11 12 12 12 12 12 13 13 12 8 9 7 4 5 6 10 11 12 12 13 12 12 14 15 15 13 13 13 15 16 15 14 14 13
1 1 2 5 4 4 1 1 3 2 5 4 4 4 4 4 4 3 6 12 10 10 10 10 11 11 13 11 12 10 10 10 8 6 6 12 12 12 11 11 11 13 15 14 13 13 12 10 13 14 13 15 13 15
Wind_Direction
290 299 301 302 297 296 269 231 246 256 251 243 244 240 229 226 219 215 211 192 196 204 217 217 223 228 214 206 206 186 148 121 157 191 181 168 171 201 166 176 183 187 183 201 182 207 239 141 149 183 138 113 117 101
298 304 307 302 300 285 242 286 280 273 263 257 254 247 236 229 216 204 212 184 199 193 202 285 231 231 233 218 205 169 197 151 170 159 231 144 180 165 154 179 165 180 175 168 183 206 58 93 118 124 124 127 119 105
307 310 306 303 294 108 301 277 296 306 297 253 233 258 259 247 238 207 191 171 181 194 265 282 223 346 213 279 193 175 175 153 177 165 147 78 118 87 162 195 160 149 181 119 121 148 120 103 92 104 104 103 116 117
311 311 308 302 140 247 296 315 319 322 5 269 247 271 294 100 100 147 155 163 167 153 149 218 256 164 114 160 123 143 138 109 104 89 83 89 107 51 143 134 150 166 173 170 173 131 112 105 102 105 96 92 92 89
320 312 311 181 151 284 318 342 1 8 24 23 131 103 75 121 121 117 129 153 160 163 145 131 109 88 120 118 115 107 121 117 108 92 84 87 112 118 109 95 201 278 149 161 161 153 128 131 122 115 103 87 80 104
317 312 211 128 141 287 343 20 27 37 24 56 49 53 83 96 109 119 117 142 173 124 105 128 155 131 106 109 112 107 100 93 67 99 122 151 148 156 93 78 97 84 92 123 116 98 97 95 91 101 105 99 90 95
314 322 139 132 172 33 355 22 26 103 27 23 36 91 92 74 70 63 106 135 111 108 132 107 90 120 127 135 130 136 130 159 141 136 122 131 112 99 130 124 130 103 104 103 111 107 88 80 108 99 107 120 124 114
310 253 138 135 125 90 27 24 28 110 90 106 80 40 74 91 75 77 70 102 173 110 86 100 115 101 18 83 86 97 126 158 51 105 98 112 46 79 76 127 125 114 97 82 83 92 114 114 112 119 133 137 102 99
336 134 136 153 139 95 45 17 14 42 35 74 48 59 44 41 69 82 354 19 72 106 121 89 113 109 180 115 117 95 82 76 28 69 89 73 40 57 140 133 130 136 110 120 110 116 123 123 134 126 96 96 102 96
63 146 130 107 97 74 22 4 357 21 94 79 0 40 35 327 345 346 29 35 24 21 37 65 101 99 138 106 77 86 70 88 83 48 86 54 65 114 124 132 131 120 126 131 131 136 137 138 119 101 93 87 96 96
133 144 154 107 80 48 23 8 3 13 65 64 17 68 224 314 35 46 64 80 81 68 46 66 105 108 63 94 93 88 126 134 107 207 134 107 90 90 104 110 114 118 126 128 127 127 120 114 112 105 93 92 93 94
144 131 136 126 83 58 32 24 12 34 33 319 67 138 52 54 68 75 61 44 65 90 128 124 101 74 63 70 84 32 101 122 132 160 139 110 144 109 107 104 100 96 92 87 89 94 101 105 109 107 103 103 105 107
125 131 119 90 75 44 22 2 1 350 298 1 36 37 16 359 44 78 128 95 106 119 145 125 108 94 83 74 77 86 74 87 101 95 88 134 140 119 110 103 96 97 95 92 89 90 95 97 99 111 117 115 112 110
122 120 106 98 79 40 13 358 353 0 31 53 54 37 39 22 39 38 98 110 105 123 124 117 92 94 87 76 83 82 62 67 145 156 147 151 141 131 119 114 109 105 104 104 103 102 104 108 111 115 119 119 114 111
106 98 86 65 56 30 358 347 351 24 56 56 36 52 12 300 48 79 91 100 106 114 112 103 76 89 85 96 88 109 133 189 193 131 143 145 138 122 115 117 119 117 116 115 117 120 120 119 120 115 112 114 117 120
86 59 44 60 35 20 359 345 17 46 63 51 40 74 51 93 85 83 82 89 78 100 77 69 96 83 89 131 145 168 163 107 119 104 134 132 129 124 123 123 123 123 123 125 127 128 127 126 123 121 118 122 128 126
71 50 6 17 2 354 353 56 49 46 51 45 24 1 56 60 63 52 41 11 344 73 92 92 73 74 133 119 69 29 56 100 113 121 124 130 128 129 127 124 126 128 132 135 132 132 128 126 124 124 130 140 137 138
67 52 24 7 354 344 19 37 67 55 50 14 38 34 39 33 46 34 5 6 23 37 45 83 123 81 73 61 83 112 86 85 96 110 116 116 119 123 129 130 132 136 141 141 140 137 140 143 143 147 151 153 150 155
73 35 356 349 10 44 49 36 67 79 57 13 12 26 33 29 19 6 8 354 359 32 69 57 57 56 70 70 114 128 121 117 117 109 107 114 122 126 128 133 138 142 145 146 149 155 164 167 162 157 160 165 171 178
9 8 358 4 12 66 63 46 54 76 74 69 39 37 52 30 343 350 346 355 3 58 46 52 64 56 93 72 119 144 124 126 123 122 122 123 124 131 145 147 149 147 146 154 159 163 177 193 159 164 172 181 184 176
14 345 347 19 47 50 69 74 63 85 92 83 130 101 84 64 38 16 6 349 49 32 70 74 93 76 48 49 89 121 132 135 141 150 150 142 143 151 155 151 148 156 163 173 167 174 180 179 166 165 175 170 159 133
346 342 18 22 65 61 54 25 87 82 73 120 86 84 88 76 47 9 328 36 56 40 38 98 114 120 103 101 106 129 141 145 144 133 130 140 155 163 172 158 161 170 174 180 170 173 180 164 143 144 137 133 134 137
344 6 34 41 67 54 48 337 88 128 100 143 132 87 69 55 27 322 62 63 75 40 71 73 70 68 96 104 114 133 146 138 140 145 150 163 158 166 156 167 174 170 175 181 165 172 172 147 149 144 143 140 139 145
14 52 41 44 57 78 340 37 79 80 111 171 94 106 102 110 287 4 94 72 107 109 78 96 108 100 86 106 147 179 152 130 133 143 155 162 162 173 165 176 183 175 172 166 160 163 146 151 151 149 156 161 158 167
45 15 46 74 145 116 81 60 95 102 104 113 91 116 141 169 133 154 94 103 81 79 55 39 48 314 12 178 164 193 153 142 146 152 172 161 153 145 160 174 177 179 166 160 159 151 152 156 158 159 169 176 187 185
74 13 29 72 81 110 137 140 164 142 107 89 88 94 178 165 161 120 71 74 68 48 44 25 11 345 331 22 155 169 193 167 153 160 170 164 162 163 166 172 178 193 171 161 153 156 160 166 169 171 180 190 193 184
71 58 39 1 12 67 61 49 65 103 120 144 155 163 163 163 127 88 94 25 52 28 44 22 9 13 358 74 127 96 112 98 165 180 167 161 169 169 170 179 187 183 157 155 154 162 166 171 178 180 187 189 181 175
72 38 88 124 79 353 132 131 157 134 106 108 150 174 144 58 79 51 38 8 350 340 62 55 44 40 52 63 71 75 82 101 99 99 91 81 87 108 156 169 160 156 157 155 157 163 166 172 178 183 184 183 176 177
74 14 324 102 92 64 47 20 70 58 355 356 131 85 89 62 19 25 9 352 4 47 58 84 55 51 59 66 68 59 41 106 137 150 151 144 131 103 101 125 135 139 145 152 158 159 165 172 175 176 177 166 156 142
35 348 353 79 46 72 49 1 78 71 21 73 110 108 90 81 34 22 18 13 33 20 16 41 20 9 105 102 99 74 16 25 49 136 168 176 172 144 135 138 137 130 125 122 120 114 120 131 125 118 123 131 132 130
324 315 43 63 71 63 72 101 94 61 51 61 52 86 116 135 113 35 21 11 29 30 30 26 30 27 24 15 354 174 143 99 61 14 3 180 157 155 150 137 131 125 125 131 132 133 138 138 140 141 143 144 144 142
10 13 357 108 106 142 249 338 96 84 128 88 113 107 152 127 89 64 8 7 28 31 19 14 11 0 353 344 343 29 60 96 80 40 86 112 125 129 129 130 129 130 130 136 136 139 144 146 146 149 149 151 153 153
125 50 78 121 135 156 153 225 116 96 64 77 52 57 60 70 86 98 39 13 19 37 358 340 325 320 320 339 355 36 53 68 62 55 93 113 116 118 118 122 126 133 137 141 144 156 163 161 159 161 160 157 148 140